www.pogodaiklimat.ru

Погода и климат >> Архив погоды >> Узбекистан >> Чимбай


АРХИВ ПОГОДЫ в Чимбае

Время (UTC), дата Ветер
(напр.,м/с)
 
Видим.   Явления Облачность Т
(С)
Тd
(С)
f
(%)
Тe
(С)
Тes
(С)
Комфортность P
(гПа)
Po
(гПа)
Тmin
(С)
Tmax
(С)
R
(мм)
R24
(мм)
S
(см)
18 16.08 З 1 н/о ясно +20.5 +11.9 58 +24 +24 комфорт 1015.9 1008.1 +30.4
21 16.08 З 1 н/о ясно +19.0 +10.3 57 +21 +21 комфорт 1015.7 1007.9
00 17.08 СЗ 1 н/о ясно +17.3 +9.9 62 +18 +18 1015.4 1007.6
03 17.08 С 1 20 км ясно +19.0 +9.4 54 +21 +24 комфорт 1015.5 1007.7
06 17.08 С 3 20 км ясно +28.3 +10.3 33 +29 +40 жарко 1015.4 1007.9 +16.5
09 17.08 С 3 20 км ясно +31.8 +9.9 26 +31 +44 жарко 1014.1 1006.7
12 17.08 СВ 2 20 км ясно +32.7 +9.0 23 +32 +37 жарко 1013.5 1006.1
15 17.08 штиль 0 20 км ясно +28.0 +15.2 46 +31 +31 душно 1013.5 1006.0 +33.2
18 17.08 С 1 н/о ясно +26.2 +11.0 39 +27 +27 жарко 1013.2 1015.5 +33.2
21 17.08 С 1 н/о ясно +19.9 +11.4 58 +23 +23 комфорт 1013.6 1005.8
00 18.08 С 1 н/о ясно +17.9 +10.9 64 +19 +19 1014.5 1006.7
03 18.08 СВ 1 20 км ясно +21.2 +11.5 54 +23 +26 комфорт 1015.3 1007.5
06 18.08 СВ 1 20 км ясно +30.7 +12.9 34 +32 +47 жарко 1016.7 1009.2 +17.7
09 18.08 СВ 2 20 км ясно +33.6 +8.6 21 +32 +48 жарко 1016.3 1008.9
12 18.08 В 1 20 км ясно +34.6 +9.3 21 +33 +40 жарко 1016.1 1008.7
15 18.08 СЗ 1 20 км ясно +28.8 +15.1 43 +31 +31 жарко 1015.9 1008.4 +35.0
18 18.08 штиль 0 н/о ясно +22.4 +10.6 47 +24 +24 комфорт 1017.1 1009.4 +35.0
21 18.08 СВ 1 н/о ясно +19.6 +10.2 55 +22 +22 комфорт 1018.2 1010.4
00 19.08 СВ 2 н/о ясно +18.3 +10.7 61 +19 +19 1017.4 1009.6
03 19.08 СВ 1 20 км ясно +20.1 +11.0 56 +23 +25 комфорт 1020.4 1012.6
06 19.08 СВ 1 20 км ясно +30.0 +10.6 30 +30 +45 жарко 1019.8 1012.3 +17.9
09 19.08 СВ 3 20 км ясно +33.2 +8.5 22 +32 +45 жарко 1018.5 1011.1
12 19.08 СВ 3 20 км ясно +34.0 +8.2 20 +32 +37 жарко 1018.2 1010.8
15 19.08 С 2 20 км ясно +28.9 +13.2 38 +30 +30 жарко 1018.5 1011.0 +34.6
18 19.08 С 2 н/о ясно +24.0 +9.5 40 +25 +25 комфорт 1019.1 1011.4 +34.6
21 19.08 С 2 н/о ясно +21.0 +9.7 48 +23 +23 комфорт 1019.1 1011.3
00 20.08 С 1 н/о ясно +18.3 +9.2 55 +20 +20 1019.2 1011.4
03 20.08 С 1 20 км ясно +21.0 +9.9 49 +24 +26 комфорт 1020.0 1012.2
06 20.08 СВ 1 20 км ясно +31.0 +12.2 32 +32 +47 жарко 1020.2 1012.7 +17.3
09 20.08 СВ 2 20 км ясно +35.3 +9.8 21 +34 +49 очень
жарко
1019.0 1011.6
12 20.08 СВ 1 20 км ясно +36.1 +11.2 22 +35 +42 очень
жарко
1017.2 1009.8
15 20.08 СЗ 1 20 км ясно +31.8 +15.9 38 +34 +34 душно 1017.0 1009.5 +37.3
18 20.08 С 2 н/о ясно +26.3 +13.0 44 +28 +28 жарко 1016.7 1009.0 +37.3
21 20.08 С 1 н/о ясно +24.0 +11.7 46 +26 +26 жарко 1016.6 1008.9
00 21.08 С 2 н/о ясно +22.4 +12.0 52 +25 +25 комфорт 1016.3 1008.6
03 21.08 С 2 20 км ясно +23.4 +10.6 44 +25 +28 комфорт 1016.5 1008.8
06 21.08 С 2 20 км ясно +32.0 +13.4 32 +33 +45 жарко 1016.0 1008.6 +20.9
09 21.08 СВ 5 20 км ясно +36.4 +10.9 21 +35 +43 очень
жарко
1015.7 1008.3
12 21.08 СВ 1 20 км ясно +36.7 +13.4 25 +37 +43 очень
жарко
1014.5 1007.2
15 21.08 штиль 0 20 км ясно +31.0 +17.2 44 +35 +35 очень
душно
1012.3 1004.8 +37.4
18 21.08 С 1 н/о ясно +26.5 +12.2 41 +28 +28 жарко 1012.4 1004.8 +37.4
21 21.08 штиль 0 н/о ясно +21.0 +14.7 67 +24 +24 комфорт 1011.7 1004.0
00 22.08 штиль 0 н/о ясно +20.1 +14.2 69 +22 +22 комфорт 1011.7 1004.0
03 22.08 ЮЗ 1 20 км ясно +22.8 +15.5 63 +27 +29 душно 1012.8 1005.2
06 22.08 З 1 20 км 5/5 1000 м
[Cu med, cong]
+34.0 +11.0 25 +34 +41 очень
жарко
1013.2 1005.8 +19.5
09 22.08 Ю 2 20 км 6/6 1000 м
[Cu med, cong]
+39.0 +15.3 25 +40 +46 очень
душно
1012.5 1005.3
12 22.08 З 1 20 км 6/6 1000 м
[Cu med, cong]
+39.4 +11.1 18 +38 +41 очень
жарко
1011.9 1004.7
15 22.08 штиль 0 20 км 5/0
[Ac trans]
+32.2 +15.9 38 +35 +35 очень
душно
1012.2 1004.9 +40.2
18 22.08 СВ 2 н/о 3/0
[Ac trans]
+25.6 +13.1 46 +28 +28 жарко 1013.2 1005.5 +40.2
21 22.08 С 2 н/о ясно +22.6 +13.0 55 +26 +26 жарко 1013.5 1005.8
00 23.08 С 2 н/о ясно +20.0 +10.4 54 +22 +22 комфорт 1014.6 1006.8
03 23.08 С 2 20 км ясно +19.7 +8.4 48 +21 +23 комфорт 1015.6 1007.8
06 23.08 С 2 20 км ясно +27.4 +8.2 30 +27 +40 жарко 1015.6 1008.1 +18.6
09 23.08 С 3 20 км ясно +32.0 +5.9 20 +30 +43 жарко 1015.1 1007.7
12 23.08 СВ 1 20 км ясно +32.7 +7.6 21 +31 +37 жарко 1014.7 1007.3

 

Местоположение метеостанции Чимбай (Каракалпакстан, Узбекистан): широта 42.95 долгота 59.82 высота над уровнем моря 66 м.

В архиве по умолчанию представлена погода в Чимбае за последнюю неделю. Архивные данные за месяц целиком и за предыдущие месяцы, начиная с января 2011 года, Вы можете получить, выбрав интересующий диапазон дат из раскрывающегося списка и нажав кнопку "Ввод!".


*Определитесь, кто Вы:
робот инопланетянин человек

Внимание! Время в таблицах - всемирное. Для получения местного времени необходимо прибавить поправку, которая равна 5 ч.

Смотрите также архив погоды в соседних городах и на ближайших метеорологических станциях:

Погода в Тахтакупыре (Каракалпакстан, Узбекистан) (55 км)
Погода в Нукусе (Каракалпакстан, Узбекистан) (58 км)
Погода в Тахиаташе (Каракалпакстан, Узбекистан) (64 км)
Погода в Кунграде (Каракалпакстан, Узбекистан) (74 км)
Погода в Кенеургенче (Дашогузский велаят, Туркменистан) (92 км)
Погода в Муйнаке (Каракалпакстан, Узбекистан) (125 км)
Погода в Гурлене (Хорезмская область, Узбекистан) (131 км)
Погода в Дашогузе (Дашогузский велаят, Туркменистан) (133 км)
Погода в Ургенче (Хорезмская область, Узбекистан) (165 км)
Погода в Шах-Сенеме (Дашогузский велаят, Туркменистан) (177 км)

Пояснения к столбцам:

Ветер - указаны скорость ветра в м/с - средняя за 10 мин, порывы в срок и между сроками (в фигурных скобках) и направление, откуда дует ветер: С - северный, СВ - северо-восточный, В - восточный, ЮВ - юго-восточный, Ю - южный, ЮЗ - юго-западный, З - западный, СЗ - северо-западный.
Видимость - горизонтальная дальность видимости в метрах или километрах. При видимости от 1 до 10 км при отсутствии осадков обычно наблюдается дымка, при ухудшении видимости до 1 км и менее - туман. В сухую погоду видимость может ухудшаться дымом, пылью или мглою.
Явления - указаны атмосферные явления, наблюдавшиеся в срок или в последний час перед сроком; фигурными скобками обозначены явления, наблюдавшиеся между сроками (за 1-3 часа до срока); квадратными скобками обозначены град или гололедные отложения с указанием их диаметра в мм.
Облачность - указаны через наклонную черту общая и нижняя облачность в баллах и высота нижней границы облаков в метрах; квадратными скобками обозначены формы облаков: Ci - перистые, Cs - перисто-слоистые, Cc - перисто-кучевые, Ac - высококучевые, As - высокослоистые, Sc - слоисто-кучевые, Ns - слоисто-дождевые, Cu - кучевые, Cb - кучево-дождевые. Подробнее классификацию облаков см. в Атласе облаков (PDF).
T - Температура воздуха - температура, измеренная на высоте 2 м над землей.
Td - Температура точки росы - температура, при понижении до которой содержащийся в воздухе водяной пар достигнет насыщения.
f - Относительная влажность воздуха - влажноcть воздуха, измеренная на высоте 2 м над землей.
Te - Эффективная температура - температура, которую ощущает одетый по сезону человек в тени. Характеристика душности погоды. При расчете учитывается влияние влажности воздуха и скорости ветра на теплоощущения человека.
Tes - Эффективная температура на солнце - температура, которую ощущает человек, с поправкой на солнечный нагрев. Характеристика знойности погоды. Зависит от высоты солнца над горизонтом, облачности и скорости ветра. Ночью, в пасмурную погоду, а также при ветре 12 м/с и более поправка равна нулю.
P - Атмосферное давление - приведенное к уровню моря атмосферное давление.
Po - Атмосферное давление - измеренное на уровне метеостанции атмосферное давление.
Tmin - Минимальная температура - минимум температуры воздуха на высоте 2 м над землей.
Tmax - Максимальная температура - максимум температуры воздуха на высоте 2 м над землей.
R - Количество осадков - Количество выпавших осадков за период времени, мм. При наведении курсора мыши на число - период времени, за который выпало указанное количество осадков.
R24 - Количество осадков - Количество выпавших осадков за 24 часа, мм.
S - Снежный покров - Высота снежного покрова, см. При наведении курсора мыши на число - состояние снежного покрова и степень покрытия местности в баллах.